Hourly Data Report for September 05, 2017

All times are specified in Local Standard Time (LST). Add 1 hour to adjust for Daylight Saving Time where and when it is observed.

SUSSEX FOUR CORNERS
NEW BRUNSWICK

45°44'30.048" N
65°31'44.039" W
47.00 m
8105210
71656
ASF

Download Data

Hourly Data (September 2017)
Hourly Data Report for September 5, 2017
Temp Definition
°C
Dew Point Temp Definition
°C
Rel Hum Definition
%
Wind Dir Definition
10's deg

Wind Spd Definition
km/h
Visibility Definition
km
Stn Press Definition
kPa
Hmdx Definition


Wind Chill Definition


Weather Definition


TIME
00:00 13.9 11.7 86 25 9   100.22     LegendNANA
01:00 13.6 11.8 88 26 7   100.19     LegendNANA
02:00 14.0 12.8 93 22 7   100.16     LegendNANA
03:00 14.2 13.0 93 22 7   100.14     LegendNANA
04:00 15.0 13.8 92 20 16   100.13     LegendNANA
05:00 14.9 13.8 93 19 13   100.12     LegendNANA
06:00 15.1 13.8 92 18 22   100.15     LegendNANA
07:00 15.9 13.7 87 19 15   100.11     LegendNANA
08:00 18.0 15.2 84 19 21   100.11     LegendNANA
09:00 18.7 15.3 80 19 27   100.17     LegendNANA
10:00 18.9 15.5 80 20 28   100.18     LegendNANA
11:00 20.6 16.0 75 19 31   100.22 25   LegendNANA
12:00 20.6 16.6 78 21 36   100.22 26   LegendNANA
13:00 19.4 16.2 82 19 32   100.24     LegendNANA
14:00 20.1 16.3 79 19 32   100.23 25   LegendNANA
15:00 19.7 17.0 85 20 24   100.28     LegendNANA
16:00 19.3 17.0 87 20 24   100.29     LegendNANA
17:00 19.1 17.1 88 19 20   100.31     LegendNANA
18:00 18.3 17.0 92 20 24   100.37     LegendNANA
19:00 18.0 16.9 94 17 16   100.38     LegendNANA
20:00 17.7 16.9 95 18 17   100.45     LegendNANA
21:00 17.6 17.1 97 18 15   100.48     LegendNANA
22:00 18.0 17.5 97 19 18   100.53     LegendNANA
23:00 18.1 17.4 96 18 22   100.51     LegendNANA

Notes on Data Quality.

Legend

  • E = Estimated
  • M = Missing
  • NA = Not Available
  • ‡ = Partner data that is not subject to review by the National Climate Archives
Date modified: